owner,sensor,date,latitude,longitude,air_temperature,qcFlag 
DISL,ioos:station:DISL:CATA:1,2013-05-01T00:00:00Z,30.3085,-88.1395,22.1,1111122 
DISL,ioos:station:DISL:CATA:1,2013-05-01T00:30:00Z,30.3085,-88.1395,21.96,1111122 
DISL,ioos:station:DISL:CATA:1,2013-05-01T01:00:00Z,30.3085,-88.1395,21.96,1111122 
DISL,ioos:station:DISL:CATA:1,2013-05-01T01:30:00Z,30.3085,-88.1395,22.23,1111122 
DISL,ioos:station:DISL:CATA:1,2013-05-01T02:00:00Z,30.3085,-88.1395,22.54,1111122 
DISL,ioos:station:DISL:CATA:1,2013-05-01T02:30:00Z,30.3085,-88.1395,22.03,1111122 
DISL,ioos:station:DISL:CATA:1,2013-05-01T03:00:00Z,30.3085,-88.1395,22.37,1111122 
DISL,ioos:station:DISL:CATA:1,2013-05-01T03:30:00Z,30.3085,-88.1395,22.41,1111122 
DISL,ioos:station:DISL:CATA:1,2013-05-01T04:00:00Z,30.3085,-88.1395,22.68,1111122 
DISL,ioos:station:DISL:CATA:1,2013-05-01T04:30:00Z,30.3085,-88.1395,22.54,1111122 
DISL,ioos:station:DISL:CATA:1,2013-05-01T05:00:00Z,30.3085,-88.1395,22.3,1111122 
DISL,ioos:station:DISL:CATA:1,2013-05-01T05:30:00Z,30.3085,-88.1395,22.37,1111122 
DISL,ioos:station:DISL:CATA:1,2013-05-01T06:30:00Z,30.3085,-88.1395,22.34,1111122 
DISL,ioos:station:DISL:CATA:1,2013-05-01T07:00:00Z,30.3085,-88.1395,21.79,1111122 
DISL,ioos:station:DISL:CATA:1,2013-05-01T07:30:00Z,30.3085,-88.1395,22.03,1111122 
DISL,ioos:station:DISL:CATA:1,2013-05-01T08:00:00Z,30.3085,-88.1395,21.82,1111122 
DISL,ioos:station:DISL:CATA:1,2013-05-01T08:30:00Z,30.3085,-88.1395,21.79,1111122 
DISL,ioos:station:DISL:CATA:1,2013-05-01T09:00:00Z,30.3085,-88.1395,21.89,1111122 
DISL,ioos:station:DISL:CATA:1,2013-05-01T09:30:00Z,30.3085,-88.1395,21.79,1111122 
DISL,ioos:station:DISL:CATA:1,2013-05-01T10:00:00Z,30.3085,-88.1395,22.06,1111122 
DISL,ioos:station:DISL:CATA:1,2013-05-01T10:30:00Z,30.3085,-88.1395,22.06,1111122 
DISL,ioos:station:DISL:CATA:1,2013-05-01T11:00:00Z,30.3085,-88.1395,21.86,1111122 
DISL,ioos:station:DISL:CATA:1,2013-05-01T11:30:00Z,30.3085,-88.1395,22.06,1111122 
DISL,ioos:station:DISL:CATA:1,2013-05-01T12:00:00Z,30.3085,-88.1395,22.06,1111122 
DISL,ioos:station:DISL:CATA:1,2013-05-01T12:30:00Z,30.3085,-88.1395,22.1,1111122 
DISL,ioos:station:DISL:CATA:1,2013-05-01T13:00:00Z,30.3085,-88.1395,22.2,1111122 
DISL,ioos:station:DISL:CATA:1,2013-05-01T13:30:00Z,30.3085,-88.1395,22.17,1111122 
DISL,ioos:station:DISL:CATA:1,2013-05-01T14:00:00Z,30.3085,-88.1395,22.47,1111122 
DISL,ioos:station:DISL:CATA:1,2013-05-01T14:30:00Z,30.3085,-88.1395,22.44,1111122 
DISL,ioos:station:DISL:CATA:1,2013-05-01T15:00:00Z,30.3085,-88.1395,22.68,1111122 
DISL,ioos:station:DISL:CATA:1,2013-05-01T15:30:00Z,30.3085,-88.1395,22.44,1111122 
DISL,ioos:station:DISL:CATA:1,2013-05-01T16:00:00Z,30.3085,-88.1395,22.78,1111122 
DISL,ioos:station:DISL:CATA:1,2013-05-01T16:30:00Z,30.3085,-88.1395,22.82,1111122 
DISL,ioos:station:DISL:CATA:1,2013-05-01T17:00:00Z,30.3085,-88.1395,22.95,1111122 
DISL,ioos:station:DISL:CATA:1,2013-05-01T17:30:00Z,30.3085,-88.1395,23.05,1111122 
DISL,ioos:station:DISL:CATA:1,2013-05-01T18:00:00Z,30.3085,-88.1395,23.05,1111122 
DISL,ioos:station:DISL:CATA:1,2013-05-01T18:30:00Z,30.3085,-88.1395,22.75,1111122 
DISL,ioos:station:DISL:CATA:1,2013-05-01T19:00:00Z,30.3085,-88.1395,22.64,1111122 
DISL,ioos:station:DISL:CATA:1,2013-05-01T19:30:00Z,30.3085,-88.1395,22.17,1111122 
DISL,ioos:station:DISL:CATA:1,2013-05-01T20:00:00Z,30.3085,-88.1395,21.58,1111122 
DISL,ioos:station:DISL:CATA:1,2013-05-01T20:30:00Z,30.3085,-88.1395,21.75,1111122 
DISL,ioos:station:DISL:CATA:1,2013-05-01T21:00:00Z,30.3085,-88.1395,21.51,1111122 
DISL,ioos:station:DISL:CATA:1,2013-05-01T21:30:00Z,30.3085,-88.1395,21.38,1111122 
DISL,ioos:station:DISL:CATA:1,2013-05-01T22:00:00Z,30.3085,-88.1395,21.55,1111122 
DISL,ioos:station:DISL:CATA:1,2013-05-01T22:30:00Z,30.3085,-88.1395,21.62,1111122 
DISL,ioos:station:DISL:CATA:1,2013-05-01T23:00:00Z,30.3085,-88.1395,21.27,1111122 
DISL,ioos:station:DISL:CATA:1,2013-05-01T23:30:00Z,30.3085,-88.1395,21.48,1111122 
DISL,ioos:station:DISL:CATA:1,2013-05-02T00:00:00Z,30.3085,-88.1395,21.55,1111122 
DISL,ioos:station:DISL:CATA:1,2013-05-02T00:30:00Z,30.3085,-88.1395,21.72,1111122 
DISL,ioos:station:DISL:CATA:1,2013-05-02T01:00:00Z,30.3085,-88.1395,21.65,1111122 
DISL,ioos:station:DISL:CATA:1,2013-05-02T01:30:00Z,30.3085,-88.1395,21.55,1111122 
DISL,ioos:station:DISL:CATA:1,2013-05-02T02:00:00Z,30.3085,-88.1395,21.21,1111122 
DISL,ioos:station:DISL:CATA:1,2013-05-02T02:30:00Z,30.3085,-88.1395,21.89,1111122 
DISL,ioos:station:DISL:CATA:1,2013-05-02T03:00:00Z,30.3085,-88.1395,21.89,1111122 
DISL,ioos:station:DISL:CATA:1,2013-05-02T03:30:00Z,30.3085,-88.1395,17.44,1111122 
DISL,ioos:station:DISL:CATA:1,2013-05-02T04:00:00Z,30.3085,-88.1395,17.69,1111122 
DISL,ioos:station:DISL:CATA:1,2013-05-02T04:30:00Z,30.3085,-88.1395,17.32,1111122 
DISL,ioos:station:DISL:CATA:1,2013-05-02T05:00:00Z,30.3085,-88.1395,17.39,1111122 
DISL,ioos:station:DISL:CATA:1,2013-05-02T05:30:00Z,30.3085,-88.1395,17.32,1111122 
DISL,ioos:station:DISL:CATA:1,2013-05-02T06:30:00Z,30.3085,-88.1395,18.07,1111122 
DISL,ioos:station:DISL:CATA:1,2013-05-02T07:00:00Z,30.3085,-88.1395,19.99,1111122 
DISL,ioos:station:DISL:CATA:1,2013-05-02T07:30:00Z,30.3085,-88.1395,19.86,1111122 
DISL,ioos:station:DISL:CATA:1,2013-05-02T08:00:00Z,30.3085,-88.1395,20.99,1111122 
DISL,ioos:station:DISL:CATA:1,2013-05-02T08:30:00Z,30.3085,-88.1395,18.35,1111122 
DISL,ioos:station:DISL:CATA:1,2013-05-02T09:00:00Z,30.3085,-88.1395,18.76,1111122 
DISL,ioos:station:DISL:CATA:1,2013-05-02T09:30:00Z,30.3085,-88.1395,18.28,1111122 
DISL,ioos:station:DISL:CATA:1,2013-05-02T10:00:00Z,30.3085,-88.1395,18.24,1111122 
DISL,ioos:station:DISL:CATA:1,2013-05-02T10:30:00Z,30.3085,-88.1395,18.69,1111122 
DISL,ioos:station:DISL:CATA:1,2013-05-02T11:00:00Z,30.3085,-88.1395,19.48,1111122 
DISL,ioos:station:DISL:CATA:1,2013-05-02T11:30:00Z,30.3085,-88.1395,17.87,1111122 
DISL,ioos:station:DISL:CATA:1,2013-05-02T12:00:00Z,30.3085,-88.1395,18.18,1111122 
DISL,ioos:station:DISL:CATA:1,2013-05-02T12:30:00Z,30.3085,-88.1395,18.55,1111122 
DISL,ioos:station:DISL:CATA:1,2013-05-02T13:00:00Z,30.3085,-88.1395,18.38,1111122 
DISL,ioos:station:DISL:CATA:1,2013-05-02T13:30:00Z,30.3085,-88.1395,18.45,1111122 
DISL,ioos:station:DISL:CATA:1,2013-05-02T14:00:00Z,30.3085,-88.1395,18.62,1111122 
DISL,ioos:station:DISL:CATA:1,2013-05-02T14:30:00Z,30.3085,-88.1395,18.48,1111122 
DISL,ioos:station:DISL:CATA:1,2013-05-02T15:00:00Z,30.3085,-88.1395,19.03,1111122 
DISL,ioos:station:DISL:CATA:1,2013-05-02T15:30:00Z,30.3085,-88.1395,19.48,1111122 
DISL,ioos:station:DISL:CATA:1,2013-05-02T16:00:00Z,30.3085,-88.1395,19.79,1111122 
DISL,ioos:station:DISL:CATA:1,2013-05-02T16:30:00Z,30.3085,-88.1395,19.65,1111122 
DISL,ioos:station:DISL:CATA:1,2013-05-02T17:00:00Z,30.3085,-88.1395,19.99,1111122 
DISL,ioos:station:DISL:CATA:1,2013-05-02T17:30:00Z,30.3085,-88.1395,19.95,1111122 
DISL,ioos:station:DISL:CATA:1,2013-05-02T18:00:00Z,30.3085,-88.1395,20.49,1111122 
DISL,ioos:station:DISL:CATA:1,2013-05-02T18:30:00Z,30.3085,-88.1395,20.32,1111122 
DISL,ioos:station:DISL:CATA:1,2013-05-02T19:00:00Z,30.3085,-88.1395,20.93,1111122 
DISL,ioos:station:DISL:CATA:1,2013-05-02T19:30:00Z,30.3085,-88.1395,20.66,1111122 
DISL,ioos:station:DISL:CATA:1,2013-05-02T20:00:00Z,30.3085,-88.1395,21.27,1111122 
DISL,ioos:station:DISL:CATA:1,2013-05-02T20:30:00Z,30.3085,-88.1395,21.41,1111122 
DISL,ioos:station:DISL:CATA:1,2013-05-02T21:00:00Z,30.3085,-88.1395,21.99,1111122 
DISL,ioos:station:DISL:CATA:1,2013-05-02T21:30:00Z,30.3085,-88.1395,21.79,1111122 
DISL,ioos:station:DISL:CATA:1,2013-05-02T22:00:00Z,30.3085,-88.1395,22.03,1111122 
DISL,ioos:station:DISL:CATA:1,2013-05-02T22:30:00Z,30.3085,-88.1395,22.23,1111122 
DISL,ioos:station:DISL:CATA:1,2013-05-02T23:00:00Z,30.3085,-88.1395,21.82,1111122 
DISL,ioos:station:DISL:CATA:1,2013-05-02T23:30:00Z,30.3085,-88.1395,21.89,1111122 
DISL,ioos:station:DISL:CATA:1,2013-05-03T00:00:00Z,30.3085,-88.1395,21.75,1111122 
DISL,ioos:station:DISL:CATA:1,2013-05-03T00:30:00Z,30.3085,-88.1395,21.55,1111122 
DISL,ioos:station:DISL:CATA:1,2013-05-03T01:00:00Z,30.3085,-88.1395,21.65,1111122 
DISL,ioos:station:DISL:CATA:1,2013-05-03T01:30:00Z,30.3085,-88.1395,20.45,1111122 
DISL,ioos:station:DISL:CATA:1,2013-05-03T02:00:00Z,30.3085,-88.1395,20.25,1111122 
DISL,ioos:station:DISL:CATA:1,2013-05-03T02:30:00Z,30.3085,-88.1395,19.97,1111122 
DISL,ioos:station:DISL:CATA:1,2013-05-03T03:00:00Z,30.3085,-88.1395,19.63,1111122 
DISL,ioos:station:DISL:CATA:1,2013-05-03T03:30:00Z,30.3085,-88.1395,20.73,1111122 
DISL,ioos:station:DISL:CATA:1,2013-05-03T04:00:00Z,30.3085,-88.1395,19.77,1111122 
DISL,ioos:station:DISL:CATA:1,2013-05-03T04:30:00Z,30.3085,-88.1395,20.01,1111122 
DISL,ioos:station:DISL:CATA:1,2013-05-03T05:00:00Z,30.3085,-88.1395,20.05,1111122 
DISL,ioos:station:DISL:CATA:1,2013-05-03T05:30:00Z,30.3085,-88.1395,20.09,1111122 
DISL,ioos:station:DISL:CATA:1,2013-05-03T06:30:00Z,30.3085,-88.1395,20.29,1111122 
DISL,ioos:station:DISL:CATA:1,2013-05-03T07:00:00Z,30.3085,-88.1395,20.29,1111122 
DISL,ioos:station:DISL:CATA:1,2013-05-03T07:30:00Z,30.3085,-88.1395,20.01,1111122 
DISL,ioos:station:DISL:CATA:1,2013-05-03T08:00:00Z,30.3085,-88.1395,20.01,1111122 
DISL,ioos:station:DISL:CATA:1,2013-05-03T08:30:00Z,30.3085,-88.1395,19.88,1111122 
DISL,ioos:station:DISL:CATA:1,2013-05-03T09:00:00Z,30.3085,-88.1395,19.95,1111122 
DISL,ioos:station:DISL:CATA:1,2013-05-03T09:30:00Z,30.3085,-88.1395,19.78,1111122 
DISL,ioos:station:DISL:CATA:1,2013-05-03T10:00:00Z,30.3085,-88.1395,20.02,1111122 
DISL,ioos:station:DISL:CATA:1,2013-05-03T10:30:00Z,30.3085,-88.1395,19.51,1111122 
DISL,ioos:station:DISL:CATA:1,2013-05-03T11:00:00Z,30.3085,-88.1395,19.34,1111122 
DISL,ioos:station:DISL:CATA:1,2013-05-03T11:30:00Z,30.3085,-88.1395,19.44,1111122 
DISL,ioos:station:DISL:CATA:1,2013-05-03T12:00:00Z,30.3085,-88.1395,19.54,1111122 
DISL,ioos:station:DISL:CATA:1,2013-05-03T12:30:00Z,30.3085,-88.1395,19.44,1111122 
DISL,ioos:station:DISL:CATA:1,2013-05-03T13:00:00Z,30.3085,-88.1395,19.39,1111122 
DISL,ioos:station:DISL:CATA:1,2013-05-03T13:30:00Z,30.3085,-88.1395,19.42,1111122 
DISL,ioos:station:DISL:CATA:1,2013-05-03T14:00:00Z,30.3085,-88.1395,19.53,1111122 
DISL,ioos:station:DISL:CATA:1,2013-05-03T14:30:00Z,30.3085,-88.1395,19.39,1111122 
DISL,ioos:station:DISL:CATA:1,2013-05-03T15:00:00Z,30.3085,-88.1395,19.73,1111122 
DISL,ioos:station:DISL:CATA:1,2013-05-03T15:30:00Z,30.3085,-88.1395,20.01,1111122 
DISL,ioos:station:DISL:CATA:1,2013-05-03T16:00:00Z,30.3085,-88.1395,20.59,1111122 
DISL,ioos:station:DISL:CATA:1,2013-05-03T16:30:00Z,30.3085,-88.1395,20.49,1111122 
DISL,ioos:station:DISL:CATA:1,2013-05-03T17:00:00Z,30.3085,-88.1395,20.93,1111122 
DISL,ioos:station:DISL:CATA:1,2013-05-03T17:30:00Z,30.3085,-88.1395,21.34,1111122 
DISL,ioos:station:DISL:CATA:1,2013-05-03T18:00:00Z,30.3085,-88.1395,21.65,1111122 
DISL,ioos:station:DISL:CATA:1,2013-05-03T18:30:00Z,30.3085,-88.1395,21.17,1111122 
DISL,ioos:station:DISL:CATA:1,2013-05-03T19:00:00Z,30.3085,-88.1395,21.17,1111122 
DISL,ioos:station:DISL:CATA:1,2013-05-03T19:30:00Z,30.3085,-88.1395,21.24,1111122 
DISL,ioos:station:DISL:CATA:1,2013-05-03T20:00:00Z,30.3085,-88.1395,21.0,1111122 
DISL,ioos:station:DISL:CATA:1,2013-05-03T20:30:00Z,30.3085,-88.1395,21.99,1111122 
DISL,ioos:station:DISL:CATA:1,2013-05-03T21:00:00Z,30.3085,-88.1395,22.19,1111122 
DISL,ioos:station:DISL:CATA:1,2013-05-03T21:30:00Z,30.3085,-88.1395,21.1,1111122 
DISL,ioos:station:DISL:CATA:1,2013-05-03T22:00:00Z,30.3085,-88.1395,20.97,1111122 
DISL,ioos:station:DISL:CATA:1,2013-05-03T22:30:00Z,30.3085,-88.1395,20.9,1111122 
DISL,ioos:station:DISL:CATA:1,2013-05-03T23:00:00Z,30.3085,-88.1395,20.93,1111122 
DISL,ioos:station:DISL:CATA:1,2013-05-03T23:30:00Z,30.3085,-88.1395,16.61,1111122 
DISL,ioos:station:DISL:CATA:1,2013-05-04T00:00:00Z,30.3085,-88.1395,14.67,1111122 
DISL,ioos:station:DISL:CATA:1,2013-05-04T00:30:00Z,30.3085,-88.1395,13.86,1111122 
DISL,ioos:station:DISL:CATA:1,2013-05-04T01:00:00Z,30.3085,-88.1395,13.22,1111122 
DISL,ioos:station:DISL:CATA:1,2013-05-04T01:30:00Z,30.3085,-88.1395,13.19,1111122 
DISL,ioos:station:DISL:CATA:1,2013-05-04T02:00:00Z,30.3085,-88.1395,12.02,1111122 
DISL,ioos:station:DISL:CATA:1,2013-05-04T02:30:00Z,30.3085,-88.1395,12.37,1111122 
DISL,ioos:station:DISL:CATA:1,2013-05-04T03:00:00Z,30.3085,-88.1395,11.99,1111122 
DISL,ioos:station:DISL:CATA:1,2013-05-04T03:30:00Z,30.3085,-88.1395,11.85,1111122 
DISL,ioos:station:DISL:CATA:1,2013-05-04T04:00:00Z,30.3085,-88.1395,11.17,1111122 
DISL,ioos:station:DISL:CATA:1,2013-05-04T04:30:00Z,30.3085,-88.1395,11.03,1111122 
DISL,ioos:station:DISL:CATA:1,2013-05-04T05:00:00Z,30.3085,-88.1395,10.35,1111122 
DISL,ioos:station:DISL:CATA:1,2013-05-04T05:30:00Z,30.3085,-88.1395,9.74,1111122 
DISL,ioos:station:DISL:CATA:1,2013-05-04T06:30:00Z,30.3085,-88.1395,9.33,1111122 
DISL,ioos:station:DISL:CATA:1,2013-05-04T07:00:00Z,30.3085,-88.1395,9.16,1111122 
DISL,ioos:station:DISL:CATA:1,2013-05-04T07:30:00Z,30.3085,-88.1395,9.3,1111122 
DISL,ioos:station:DISL:CATA:1,2013-05-04T08:00:00Z,30.3085,-88.1395,9.16,1111122 
DISL,ioos:station:DISL:CATA:1,2013-05-04T08:30:00Z,30.3085,-88.1395,9.16,1111122 
DISL,ioos:station:DISL:CATA:1,2013-05-04T09:00:00Z,30.3085,-88.1395,8.34,1111122 
DISL,ioos:station:DISL:CATA:1,2013-05-04T09:30:00Z,30.3085,-88.1395,8.72,1111122 
DISL,ioos:station:DISL:CATA:1,2013-05-04T10:00:00Z,30.3085,-88.1395,8.62,1111122 
DISL,ioos:station:DISL:CATA:1,2013-05-04T10:30:00Z,30.3085,-88.1395,8.52,1111122 
DISL,ioos:station:DISL:CATA:1,2013-05-04T11:00:00Z,30.3085,-88.1395,8.21,1111122 
DISL,ioos:station:DISL:CATA:1,2013-05-04T11:30:00Z,30.3085,-88.1395,8.42,1111122 
DISL,ioos:station:DISL:CATA:1,2013-05-04T12:00:00Z,30.3085,-88.1395,8.04,1111122 
DISL,ioos:station:DISL:CATA:1,2013-05-04T12:30:00Z,30.3085,-88.1395,8.72,1111122 
DISL,ioos:station:DISL:CATA:1,2013-05-04T13:00:00Z,30.3085,-88.1395,9.44,1111122 
DISL,ioos:station:DISL:CATA:1,2013-05-04T13:30:00Z,30.3085,-88.1395,10.77,1111122 
DISL,ioos:station:DISL:CATA:1,2013-05-04T14:00:00Z,30.3085,-88.1395,11.72,1111122 
DISL,ioos:station:DISL:CATA:1,2013-05-04T14:30:00Z,30.3085,-88.1395,12.33,1111122 
DISL,ioos:station:DISL:CATA:1,2013-05-04T15:00:00Z,30.3085,-88.1395,13.4,1111122 
DISL,ioos:station:DISL:CATA:1,2013-05-04T15:30:00Z,30.3085,-88.1395,13.57,1111122 
DISL,ioos:station:DISL:CATA:1,2013-05-04T16:00:00Z,30.3085,-88.1395,14.97,1111122 
DISL,ioos:station:DISL:CATA:1,2013-05-04T16:30:00Z,30.3085,-88.1395,15.13,1111122 
DISL,ioos:station:DISL:CATA:1,2013-05-04T17:00:00Z,30.3085,-88.1395,15.57,1111122 
DISL,ioos:station:DISL:CATA:1,2013-05-04T17:30:00Z,30.3085,-88.1395,15.85,1111122 
DISL,ioos:station:DISL:CATA:1,2013-05-04T18:00:00Z,30.3085,-88.1395,16.84,1111122 
DISL,ioos:station:DISL:CATA:1,2013-05-04T18:30:00Z,30.3085,-88.1395,16.6,1111122 
DISL,ioos:station:DISL:CATA:1,2013-05-04T19:00:00Z,30.3085,-88.1395,17.42,1111122 
DISL,ioos:station:DISL:CATA:1,2013-05-04T19:30:00Z,30.3085,-88.1395,17.63,1111122 
DISL,ioos:station:DISL:CATA:1,2013-05-04T20:00:00Z,30.3085,-88.1395,18.82,1111122 
DISL,ioos:station:DISL:CATA:1,2013-05-04T20:30:00Z,30.3085,-88.1395,18.84,1111122 
DISL,ioos:station:DISL:CATA:1,2013-05-04T21:00:00Z,30.3085,-88.1395,18.95,1111122 
DISL,ioos:station:DISL:CATA:1,2013-05-04T21:30:00Z,30.3085,-88.1395,18.77,1111122 
DISL,ioos:station:DISL:CATA:1,2013-05-04T22:00:00Z,30.3085,-88.1395,19.29,1111122 
DISL,ioos:station:DISL:CATA:1,2013-05-04T22:30:00Z,30.3085,-88.1395,19.46,1111122 
DISL,ioos:station:DISL:CATA:1,2013-05-04T23:00:00Z,30.3085,-88.1395,19.08,1111122 
DISL,ioos:station:DISL:CATA:1,2013-05-04T23:30:00Z,30.3085,-88.1395,19.12,1111122 
DISL,ioos:station:DISL:CATA:1,2013-05-05T00:00:00Z,30.3085,-88.1395,18.54,1111122 
DISL,ioos:station:DISL:CATA:1,2013-05-05T00:30:00Z,30.3085,-88.1395,17.94,1111122 
DISL,ioos:station:DISL:CATA:1,2013-05-05T01:00:00Z,30.3085,-88.1395,17.46,1111122 
DISL,ioos:station:DISL:CATA:1,2013-05-05T01:30:00Z,30.3085,-88.1395,17.52,1111122 
DISL,ioos:station:DISL:CATA:1,2013-05-05T02:00:00Z,30.3085,-88.1395,17.59,1111122 
DISL,ioos:station:DISL:CATA:1,2013-05-05T02:30:00Z,30.3085,-88.1395,16.98,1111122 
DISL,ioos:station:DISL:CATA:1,2013-05-05T03:00:00Z,30.3085,-88.1395,16.78,1111122 
DISL,ioos:station:DISL:CATA:1,2013-05-05T03:30:00Z,30.3085,-88.1395,17.54,1111122 
DISL,ioos:station:DISL:CATA:1,2013-05-05T04:00:00Z,30.3085,-88.1395,17.33,1111122 
DISL,ioos:station:DISL:CATA:1,2013-05-05T04:30:00Z,30.3085,-88.1395,17.5,1111122 
DISL,ioos:station:DISL:CATA:1,2013-05-05T05:00:00Z,30.3085,-88.1395,16.92,1111122 
DISL,ioos:station:DISL:CATA:1,2013-05-05T05:30:00Z,30.3085,-88.1395,17.54,1111122 
DISL,ioos:station:DISL:CATA:1,2013-05-05T06:30:00Z,30.3085,-88.1395,18.45,1111122 
DISL,ioos:station:DISL:CATA:1,2013-05-05T07:00:00Z,30.3085,-88.1395,18.35,1111122 
DISL,ioos:station:DISL:CATA:1,2013-05-05T07:30:00Z,30.3085,-88.1395,18.18,1111122 
DISL,ioos:station:DISL:CATA:1,2013-05-05T08:00:00Z,30.3085,-88.1395,18.07,1111122 
DISL,ioos:station:DISL:CATA:1,2013-05-05T08:30:00Z,30.3085,-88.1395,18.72,1111122 
DISL,ioos:station:DISL:CATA:1,2013-05-05T09:00:00Z,30.3085,-88.1395,18.11,1111122 
DISL,ioos:station:DISL:CATA:1,2013-05-05T09:30:00Z,30.3085,-88.1395,18.45,1111122 
DISL,ioos:station:DISL:CATA:1,2013-05-05T10:00:00Z,30.3085,-88.1395,18.55,1111122 
DISL,ioos:station:DISL:CATA:1,2013-05-05T10:30:00Z,30.3085,-88.1395,18.86,1111122 
DISL,ioos:station:DISL:CATA:1,2013-05-05T11:00:00Z,30.3085,-88.1395,18.86,1111122 
DISL,ioos:station:DISL:CATA:1,2013-05-05T11:30:00Z,30.3085,-88.1395,19.17,1111122 
DISL,ioos:station:DISL:CATA:1,2013-05-05T12:00:00Z,30.3085,-88.1395,19.34,1111122 
DISL,ioos:station:DISL:CATA:1,2013-05-05T12:30:00Z,30.3085,-88.1395,18.42,1111122 
DISL,ioos:station:DISL:CATA:1,2013-05-05T13:00:00Z,30.3085,-88.1395,18.28,1111122 
DISL,ioos:station:DISL:CATA:1,2013-05-05T13:30:00Z,30.3085,-88.1395,18.17,1111122 
DISL,ioos:station:DISL:CATA:1,2013-05-05T14:00:00Z,30.3085,-88.1395,17.83,1111122 
DISL,ioos:station:DISL:CATA:1,2013-05-05T14:30:00Z,30.3085,-88.1395,17.51,1111122 
DISL,ioos:station:DISL:CATA:1,2013-05-05T15:00:00Z,30.3085,-88.1395,17.48,1111122 
DISL,ioos:station:DISL:CATA:1,2013-05-05T15:30:00Z,30.3085,-88.1395,17.61,1111122 
DISL,ioos:station:DISL:CATA:1,2013-05-05T16:00:00Z,30.3085,-88.1395,16.86,1111122 
DISL,ioos:station:DISL:CATA:1,2013-05-05T16:30:00Z,30.3085,-88.1395,17.25,1111122 
DISL,ioos:station:DISL:CATA:1,2013-05-05T17:00:00Z,30.3085,-88.1395,17.11,1111122 
DISL,ioos:station:DISL:CATA:1,2013-05-05T17:30:00Z,30.3085,-88.1395,16.84,1111122 
DISL,ioos:station:DISL:CATA:1,2013-05-05T18:00:00Z,30.3085,-88.1395,16.43,1111122 
DISL,ioos:station:DISL:CATA:1,2013-05-05T18:30:00Z,30.3085,-88.1395,17.59,1111122 
DISL,ioos:station:DISL:CATA:1,2013-05-05T19:00:00Z,30.3085,-88.1395,17.22,1111122 
DISL,ioos:station:DISL:CATA:1,2013-05-05T19:30:00Z,30.3085,-88.1395,17.42,1111122 
DISL,ioos:station:DISL:CATA:1,2013-05-05T20:00:00Z,30.3085,-88.1395,17.32,1111122 
DISL,ioos:station:DISL:CATA:1,2013-05-05T20:30:00Z,30.3085,-88.1395,17.04,1111122 
DISL,ioos:station:DISL:CATA:1,2013-05-05T21:00:00Z,30.3085,-88.1395,17.08,1111122 
DISL,ioos:station:DISL:CATA:1,2013-05-05T21:30:00Z,30.3085,-88.1395,16.63,1111122 
DISL,ioos:station:DISL:CATA:1,2013-05-05T22:00:00Z,30.3085,-88.1395,16.74,1111122 
DISL,ioos:station:DISL:CATA:1,2013-05-05T22:30:00Z,30.3085,-88.1395,17.21,1111122 
DISL,ioos:station:DISL:CATA:1,2013-05-05T23:00:00Z,30.3085,-88.1395,16.53,1111122 
DISL,ioos:station:DISL:CATA:1,2013-05-05T23:30:00Z,30.3085,-88.1395,16.67,1111122 
DISL,ioos:station:DISL:CATA:1,2013-05-06T00:00:00Z,30.3085,-88.1395,16.43,1111122 
DISL,ioos:station:DISL:CATA:1,2013-05-06T00:30:00Z,30.3085,-88.1395,15.19,1111122 
DISL,ioos:station:DISL:CATA:1,2013-05-06T01:00:00Z,30.3085,-88.1395,14.86,1111122 
DISL,ioos:station:DISL:CATA:1,2013-05-06T01:30:00Z,30.3085,-88.1395,14.46,1111122 
DISL,ioos:station:DISL:CATA:1,2013-05-06T02:00:00Z,30.3085,-88.1395,13.84,1111122 
DISL,ioos:station:DISL:CATA:1,2013-05-06T02:30:00Z,30.3085,-88.1395,13.81,1111122 
DISL,ioos:station:DISL:CATA:1,2013-05-06T03:00:00Z,30.3085,-88.1395,13.05,1111122 
DISL,ioos:station:DISL:CATA:1,2013-05-06T03:30:00Z,30.3085,-88.1395,13.29,1111122 
DISL,ioos:station:DISL:CATA:1,2013-05-06T04:00:00Z,30.3085,-88.1395,12.54,1111122 
DISL,ioos:station:DISL:CATA:1,2013-05-06T04:30:00Z,30.3085,-88.1395,12.26,1111122 
DISL,ioos:station:DISL:CATA:1,2013-05-06T05:00:00Z,30.3085,-88.1395,12.3,1111122 
DISL,ioos:station:DISL:CATA:1,2013-05-06T05:30:00Z,30.3085,-88.1395,12.23,1111122 
DISL,ioos:station:DISL:CATA:1,2013-05-06T06:30:00Z,30.3085,-88.1395,12.34,1111122 
DISL,ioos:station:DISL:CATA:1,2013-05-06T07:00:00Z,30.3085,-88.1395,12.2,1111122 
DISL,ioos:station:DISL:CATA:1,2013-05-06T07:30:00Z,30.3085,-88.1395,12.51,1111122 
DISL,ioos:station:DISL:CATA:1,2013-05-06T08:00:00Z,30.3085,-88.1395,12.71,1111122 
DISL,ioos:station:DISL:CATA:1,2013-05-06T08:30:00Z,30.3085,-88.1395,13.67,1111122 
DISL,ioos:station:DISL:CATA:1,2013-05-06T09:00:00Z,30.3085,-88.1395,13.77,1111122 
DISL,ioos:station:DISL:CATA:1,2013-05-06T09:30:00Z,30.3085,-88.1395,13.6,1111122 
DISL,ioos:station:DISL:CATA:1,2013-05-06T10:00:00Z,30.3085,-88.1395,13.84,1111122 
DISL,ioos:station:DISL:CATA:1,2013-05-06T10:30:00Z,30.3085,-88.1395,14.42,1111122 
DISL,ioos:station:DISL:CATA:1,2013-05-06T11:00:00Z,30.3085,-88.1395,13.74,1111122 
DISL,ioos:station:DISL:CATA:1,2013-05-06T11:30:00Z,30.3085,-88.1395,13.77,1111122 
DISL,ioos:station:DISL:CATA:1,2013-05-06T12:00:00Z,30.3085,-88.1395,14.49,1111122 
DISL,ioos:station:DISL:CATA:1,2013-05-06T12:30:00Z,30.3085,-88.1395,15.38,1111122 
DISL,ioos:station:DISL:CATA:1,2013-05-06T13:00:00Z,30.3085,-88.1395,15.72,1111122 
DISL,ioos:station:DISL:CATA:1,2013-05-06T13:30:00Z,30.3085,-88.1395,15.91,1111122 
DISL,ioos:station:DISL:CATA:1,2013-05-06T14:00:00Z,30.3085,-88.1395,16.15,1111122 
DISL,ioos:station:DISL:CATA:1,2013-05-06T14:30:00Z,30.3085,-88.1395,15.74,1111122 
DISL,ioos:station:DISL:CATA:1,2013-05-06T15:00:00Z,30.3085,-88.1395,16.22,1111122 
DISL,ioos:station:DISL:CATA:1,2013-05-06T15:30:00Z,30.3085,-88.1395,16.33,1111122 
DISL,ioos:station:DISL:CATA:1,2013-05-06T16:00:00Z,30.3085,-88.1395,16.87,1111122 
DISL,ioos:station:DISL:CATA:1,2013-05-06T16:30:00Z,30.3085,-88.1395,17.11,1111122 
DISL,ioos:station:DISL:CATA:1,2013-05-06T17:00:00Z,30.3085,-88.1395,16.8,1111122 
DISL,ioos:station:DISL:CATA:1,2013-05-06T17:30:00Z,30.3085,-88.1395,17.15,1111122 
DISL,ioos:station:DISL:CATA:1,2013-05-06T18:00:00Z,30.3085,-88.1395,16.94,1111122 
DISL,ioos:station:DISL:CATA:1,2013-05-06T18:30:00Z,30.3085,-88.1395,17.14,1111122 
DISL,ioos:station:DISL:CATA:1,2013-05-06T19:00:00Z,30.3085,-88.1395,17.62,1111122 
DISL,ioos:station:DISL:CATA:1,2013-05-06T19:30:00Z,30.3085,-88.1395,17.76,1111122 
DISL,ioos:station:DISL:CATA:1,2013-05-06T20:00:00Z,30.3085,-88.1395,17.79,1111122 
DISL,ioos:station:DISL:CATA:1,2013-05-06T20:30:00Z,30.3085,-88.1395,18.33,1111122 
DISL,ioos:station:DISL:CATA:1,2013-05-06T21:00:00Z,30.3085,-88.1395,18.23,1111122 
DISL,ioos:station:DISL:CATA:1,2013-05-06T21:30:00Z,30.3085,-88.1395,18.57,1111122 
DISL,ioos:station:DISL:CATA:1,2013-05-06T22:00:00Z,30.3085,-88.1395,18.84,1111122 
DISL,ioos:station:DISL:CATA:1,2013-05-06T22:30:00Z,30.3085,-88.1395,18.65,1111122 
DISL,ioos:station:DISL:CATA:1,2013-05-06T23:00:00Z,30.3085,-88.1395,18.89,1111122 
DISL,ioos:station:DISL:CATA:1,2013-05-06T23:30:00Z,30.3085,-88.1395,18.65,1111122 
DISL,ioos:station:DISL:CATA:1,2013-05-07T00:00:00Z,30.3085,-88.1395,18.65,1111122 
DISL,ioos:station:DISL:CATA:1,2013-05-07T00:30:00Z,30.3085,-88.1395,19.2,1111122 
DISL,ioos:station:DISL:CATA:1,2013-05-07T01:00:00Z,30.3085,-88.1395,18.99,1111122 
DISL,ioos:station:DISL:CATA:1,2013-05-07T01:30:00Z,30.3085,-88.1395,19.37,1111122 
DISL,ioos:station:DISL:CATA:1,2013-05-07T02:00:00Z,30.3085,-88.1395,19.2,1111122 
DISL,ioos:station:DISL:CATA:1,2013-05-07T02:30:00Z,30.3085,-88.1395,20.03,1111122 